STARLINK-31900, 59942

Orbit data source: Space-Track

STARLINK-31900, 59942 is a payload satellite owned by SpaceX/Seattle (US) in LEO that was launched on Sat, 01 Jun 2024 UTC via an FALCON 9 launch vehicle from the Air Force Eastern Test Range (AFETR). Payload-class satellites include a variety of spacecraft equipped with specific instruments for various scientific and technological missions. These include communications satellites like Starlink; space stations such as the ISS; scientific satellites like the Hubble; Earth observation satellites from companies like Planet Labs, Umbra, and HawkEye 360; GPS; miniature CubeSats for education and research; and military/defense satellites.

Loading next visibility...
Identifier
59942, 2024-106W
Orbit
LEO
Country
Flag of USUS
Related business
Manufacturer
SpaceX/Seattle
Mission
Operational Commercial Communications
Bus & Motor
STARLINK V2M, Unknown motor
Mass
730 kg wet, ~700 kg dry
Launch date (UTC)
2024-06-01 (1 year ago)
Launch vehicle
FALCON 9
Launch site
Air Force Eastern Test Range (AFETR)
Object type
Payload
Rocket body
Debris
Shape & HBR
Box + 2 Pan, 17.7 m
Radar Cross Section
33.884 m², Large (>1 m²)

Expand to show TLE details & history
Last TLE update: 19 hours ago

TLE from 19 hours ago
0 STARLINK-31900
1 59942U 24106W   25310.28642404  .00001677  00000-0  70432-4 0  9994
2 59942  43.0003 309.1170 0000850 257.0968 102.9789 15.27590750 81659
Epoch: 2025-11-06T06:52Z
TLE epoch observation values (Epoch: 2025-11-06T06:52:27.037Z)
Latitude
0.00002°
Longitude
160.25745°
Altitude
482.923 km
Speed
7.626 km/s
True Right ascension
20h 36m 28s
True Declination
0° 00' 00"
Sunlit
Object was in daylight at epoch
Visualization orbit readout
Latitude
Unknown
Longitude
Unknown
Altitude
Unknown
Speed
Unknown
Apparent Right ascension
Unknown
Apparent Declination
Unknown
Sunlit
N/A
Visualization observer readout
Local Sidereal Time
21:57:46
Azimuth
Unknown
Elevation
Unknown
Doppler factor
Unknown
Orbital elements
Apogee altitude
485.545 km
Perigee altitude
484.379 km
Semi-major axis
6,863.099 km
Eccentricity
0.00009
Inclination
43.0003°
RAAN
309.117°
Arg. of periapsis
257.0968°
True anomaly
102.98839°
Mean anomaly
102.9789°
Eccentric anomaly
102.98365°
Mean motion
3.81736 °/min
Orbital period
94.31 mins
BSTAR
0.000070432
Loading maneuver chart data...
Computing Atmospheric mass density...
Loading historical data...
Loading historical data...
Loading historical data...
Loading historical data...
Loading historical data...
Loading historical data...
Loading historical data...

Documentation

Showing up to 5 results
|